2023/01/30 00:00:00,160.0,-5.3
2023/01/30 00:10:00,159.9,-5.2
2023/01/30 00:20:00,159.8,-5.3
2023/01/30 00:30:00,159.8,-5.1
2023/01/30 00:40:00,159.7,-5.2
2023/01/30 00:50:00,159.7,-4.9
2023/01/30 01:00:00,159.7,-5.5
2023/01/30 01:10:00,159.5,-5.7
2023/01/30 01:20:00,159.4,-6.0
2023/01/30 01:30:00,159.2,-5.8
2023/01/30 01:40:00,159.1,-6.0
2023/01/30 01:50:00,159.1,-6.2
2023/01/30 02:00:00,158.9,-6.5
2023/01/30 02:10:00,158.7,-6.1
2023/01/30 02:20:00,158.6,-6.2
2023/01/30 02:30:00,158.6,-6.1
2023/01/30 02:40:00,158.7,-6.3
2023/01/30 02:50:00,158.6,-6.3
2023/01/30 03:00:00,158.4,-6.4
2023/01/30 03:10:00,158.3,-6.3
2023/01/30 03:20:00,158.2,-6.3
2023/01/30 03:30:00,158.1,-6.1
2023/01/30 03:40:00,158.1,-5.8
2023/01/30 03:50:00,158.2,-6.0
2023/01/30 04:00:00,158.3,-5.2
2023/01/30 04:10:00,158.4,-5.3
2023/01/30 04:20:00,158.5,-5.1
2023/01/30 04:30:00,158.6,-5.0
2023/01/30 04:40:00,158.5,-5.1
2023/01/30 04:50:00,158.4,-5.3
2023/01/30 05:00:00,158.4,-5.0
2023/01/30 05:10:00,158.6,-5.1
2023/01/30 05:20:00,159.3,-4.8
2023/01/30 05:30:00,159.8,-4.8
2023/01/30 05:40:00,160.0,-4.6
2023/01/30 05:50:00,160.1,-4.5
2023/01/30 06:00:00,160.1,-4.7
2023/01/30 06:10:00,160.2,-4.2
2023/01/30 06:20:00,160.8,-3.6
2023/01/30 06:30:00,161.5,-4.0
2023/01/30 06:40:00,161.5,-3.7
2023/01/30 06:50:00,161.9,-3.8
2023/01/30 07:00:00,161.9,-3.6
2023/01/30 07:10:00,161.9,-3.8
2023/01/30 07:20:00,161.8,-3.6
2023/01/30 07:30:00,161.6,-3.6
2023/01/30 07:40:00,161.7,-3.4
2023/01/30 07:50:00,161.6,-3.1
2023/01/30 08:00:00,161.4,-3.2
2023/01/30 08:10:00,161.2,-2.9
2023/01/30 08:20:00,161.3,-3.3
2023/01/30 08:30:00,162.1,-3.2
2023/01/30 08:40:00,162.5,-2.8
2023/01/30 08:50:00,162.6,-3.0
2023/01/30 09:00:00,163.3,-3.0
2023/01/30 09:10:00,163.4,-2.4
2023/01/30 09:20:00,164.0,-1.6
2023/01/30 09:30:00,164.5,-2.3
2023/01/30 09:40:00,164.7,-2.6
2023/01/30 09:50:00,164.9,-2.5
2023/01/30 10:00:00,165.5,-2.2
2023/01/30 10:10:00,165.9,-1.7
2023/01/30 10:20:00,166.0,-2.1
2023/01/30 10:30:00,166.5,-1.9
2023/01/30 10:40:00,166.8,-2.4
2023/01/30 10:50:00,167.0,-2.1
2023/01/30 11:00:00,167.7,-2.2
2023/01/30 11:10:00,168.3,-1.9
2023/01/30 11:20:00,168.6,-1.9
2023/01/30 11:30:00,168.8,-2.0
2023/01/30 11:40:00,169.4,-1.6
2023/01/30 11:50:00,169.7,-1.9
2023/01/30 12:00:00,169.4,-0.2
2023/01/30 12:10:00,169.7,-0.7
2023/01/30 12:20:00,169.8,-1.6
2023/01/30 12:30:00,170.0,-1.5
2023/01/30 12:40:00,170.5,-1.3
2023/01/30 13:00:00,---,-1.2
2023/01/30 13:10:00,171.1,-0.8
2023/01/30 13:20:00,170.8,-0.7
2023/01/30 13:30:00,171.1,-1.7
2023/01/30 13:50:00,68.5,-1.8
2023/01/30 14:00:00,171.3,-1.7
2023/01/30 14:10:00,171.7,-1.8
2023/01/30 14:20:00,172.3,-2.0
2023/01/30 14:30:00,172.7,-2.0
2023/01/30 14:40:00,173.2,-2.2
2023/01/30 14:50:00,173.8,-2.3
2023/01/30 15:00:00,174.3,-2.4
2023/01/30 15:10:00,174.7,-2.4
2023/01/30 15:20:00,175.6,-2.3
2023/01/30 15:30:00,175.8,-2.5
2023/01/30 15:50:00, 0.0,-1.9
2023/01/30 16:00:00,176.1,-2.3
2023/01/30 16:10:00,176.2,-2.9
2023/01/30 16:20:00,176.4,-2.7
2023/01/30 16:30:00,176.3,-2.7
2023/01/30 16:40:00,176.5,-2.4
2023/01/30 16:50:00,176.6,-2.6
2023/01/30 17:00:00,176.6,-2.6
2023/01/30 17:10:00,177.0,-2.7
2023/01/30 17:20:00,177.3,-2.7
2023/01/30 17:30:00,177.2,-3.0
2023/01/30 17:40:00,177.6,-3.1
2023/01/30 17:50:00,178.2,-2.9
2023/01/30 18:00:00,178.1,-2.8
2023/01/30 18:10:00,178.3,-3.3
2023/01/30 18:20:00,178.4,-3.1
2023/01/30 18:30:00,178.3,-3.3
2023/01/30 18:40:00,178.1,-3.3
2023/01/30 18:50:00,178.1,-3.2
2023/01/30 19:00:00,177.7,-3.2
2023/01/30 19:10:00,177.8,-2.7
2023/01/30 19:20:00,177.5,-3.3
2023/01/30 19:30:00,177.7,-3.3
2023/01/30 19:40:00,178.0,-3.4
2023/01/30 19:50:00,178.3,-3.0
2023/01/30 20:00:00,178.1,-3.2
2023/01/30 20:10:00,178.0,-3.1
2023/01/30 20:20:00,177.7,-3.3
2023/01/30 20:30:00,177.7,-3.0
2023/01/30 20:40:00,177.5,-3.3
2023/01/30 20:50:00,177.7,-3.3
2023/01/30 21:00:00,177.8,-3.5
2023/01/30 21:10:00,177.7,-3.2
2023/01/30 21:20:00,177.9,-3.5
2023/01/30 21:30:00,178.0,-3.1
2023/01/30 21:40:00,177.8,-3.0
2023/01/30 21:50:00,177.5,-3.4
2023/01/30 22:00:00,177.3,-3.5
2023/01/30 22:10:00,177.4,-3.5
2023/01/30 22:20:00,177.5,-3.4
2023/01/30 22:30:00,177.1,-3.4
2023/01/30 22:40:00,177.1,-3.3
2023/01/30 22:50:00,177.4,-3.5
2023/01/30 23:00:00,177.5,-3.2
2023/01/30 23:10:00,177.2,-3.7
2023/01/30 23:20:00,176.9,-3.6
2023/01/30 23:30:00,176.6,-4.2
2023/01/30 23:40:00,176.5,-4.1
2023/01/30 23:50:00,176.5,-4.2
